Regional Weather Roundup
Issued by NWS

Home | Current Version | Previous Version | Graphics & Text | Print | Product List | Glossary On
Versions: 1 2 3 4 5 6 7 8 9 10 11 12 13 14 15 16 17 18 19 20 21 22 23 24 25 26 27 28 29 30 31 32 33 34 35 36 37 38 39 40 41 42 43 44 45 46 47 48 49
000
ASUS45 KBOU 200910
RWRCO

WEATHER ROUNDUP FOR COLORADO
NATIONAL WEATHER SERVICE DENVER/BOULDER CO
200 AM MST TUE FEB 20 2018

NOTE: "FAIR" INDICATES FEW OR NO CLOUDS BELOW 12000 FEET WITH NO
SIGNIFICANT WEATHER AND/OR OBSTRUCTIONS TO VISIBILITY.

COZ001>005-013-030-031-201000-
...NORTHWEST COLORADO...

CITY           SKY/WX    TMP DP  RH WIND       PRES   REMARKS
CRAIG          LGT SNOW   2  -3  80 CALM      29.78R
HAYDEN         LGT SNOW   2  -3  80 SE5       29.77R WCI  -8
MEEKER         LGT SNOW   5   1  83 S3        29.75R FOG
RANGELY        FAIR       6   0  74 E13       29.83R WCI -10
RABBIT EARS PA CLOUDY    -8 -11  84 W14G21    29.47R WCI -28
STEAMBOAT SPGS CLOUDY     1  -3  85 CALM      29.72R
WALDEN         CLOUDY    -6 -13  71 N10       29.60R WCI -23
$$

COZ006>008-011-201000-
...WEST CENTRAL VALLEYS...

CITY           SKY/WX    TMP DP  RH WIND       PRES   REMARKS
GRAND JUNCTION CLOUDY    20  18  92 SW5       29.79R WCI  13
MONTROSE       FLURRIES  21  19  92 NW7       29.77R WCI  12
EAGLE          CLOUDY    15   7  70 NW10      29.68R WCI   2
RIFLE          MIX PCPN  14   8  77 W8        29.78R WCI   3
DELTA          CLOUDY    23  19  82 SW18      29.73S WCI   9
NUCLA          LGT SNOW  23  19  86 W9        29.78R WCI  13
$$

COZ017>023-064>068-201000-
...SOUTHWEST COLORADO...

CITY           SKY/WX    TMP DP  RH WIND       PRES   REMARKS
DURANGO        MOCLDY    18  15  88 SW9       29.76R WCI   7
CORTEZ         FAIR      18  12  77 S12       29.79R WCI   5
PAGOSA SPRINGS LGT SNOW  19  16  86 SW13      29.72S WCI   7
TELLURIDE      CLOUDY    13   2  61 SW10G16   29.66R WCI   0
WOLF CREEK PAS CLOUDY     1   0  92 MISG      29.53R
$$

COZ009-010-012-014-032>034-037-058>063-201000-
...CENTRAL COLORADO...

CITY           SKY/WX    TMP DP  RH WIND       PRES   REMARKS
ASPEN          LGT SNOW  13   7  77 NW12      29.60R WCI  -1
BUENA VISTA    CLOUDY    21   2  44 SW9G18    29.59R WCI  11
COPPER MTN     LGT SNOW   7   0  72 W23G35    29.43R VSB 3/4 WCI -14
BERTHOUD PASS  SNOW       0 -11  60 W32       29.36R VSB 1/2 WCI -27
COTTONWOOD PAS CLOUDY    19   3  49 W7G18     29.53R WCI  10
GUNNISON       FAIR      17   6  62 W8        29.64R WCI   7
GRANBY         LGT SNOW  11   7  83 SW9       29.57R WCI  -2
KREMMLING      CLOUDY    14   3  62 NE5       29.64R WCI   6
LEADVILLE      MOCLDY     9  -5  53 VRB6G31   29.49R WCI  -1
MONARCH PASS   SNOW       1  -2  85 SW35G45   29.55F VSB 1/2 WCI -25
SALIDA         CLOUDY    22  14  72 SW9       29.70R WCI  12
SUNLIGHT       LGT SNOW   0  -6  78 SW12G21   29.54R WCI -18
WILKERSON PASS LGT SNOW N/A N/A N/A SW17G29   29.49R
$$

COZ069>075-201000-
...SAN LUIS VALLEY/SANGRE DE CRISTO MOUNTAINS...

CITY           SKY/WX    TMP DP  RH WIND       PRES   REMARKS
ALAMOSA        CLOUDY    20  13  74 SW14      29.69R WCI   7
DEL NORTE      CLOUDY    19  10  66 SW9G16    29.65R WCI   8
LA VETA PASS   LGT SNOW  12   9  85 SW23G40   29.66R WCI  -7
SAGUACHE       CLOUDY    21  14  73 SW10      29.64R WCI  10
$$

COZ035-036-038>040-201000-
...NORTHERN COLORADO FRONT RANGE...

CITY           SKY/WX    TMP DP  RH WIND       PRES   REMARKS
DENVER INTL AP FLURRIES   1  -4  79 N15       29.78R WCI -18
AURORA         FLURRIES   1  -2  86 N8        29.77R WCI -13
FRONT RANGE AP LGT SNOW   3  -1  81 N10       29.78R WCI -12
ERIE MUNI ARPT FLURRIES   2  -2  82 NE5       29.90R WCI  -7
BOULDER MUN AP LGT SNOW   3   0  85 NE5       29.82R WCI  -6
CENTENNIAL     LGT SNOW   2  -1  88 N10       29.74R FOG     WCI -14
BROOMFIELD     CLOUDY     3   0  85 N7        29.78R WCI  -9
FORT COLLINS   CLOUDY     2  -4  76 E6        29.84R WCI  -9
LONGMONT       FLURRIES   5  -1  76 E8        29.86R WCI  -8
$$

COZ041-046-047-076>085-087-088-201000-
...PIKES PEAK/PALMER DIVIDE AND SOUTHERN FOOTHILLS...

CITY           SKY/WX    TMP DP  RH WIND       PRES   REMARKS
COLO. SPRINGS  CLOUDY    10   6  84 SE6       29.69R FOG     WCI   0
A. F. ACADEMY  DRIZZLE    7   2  79 NW12      29.65R WCI  -8
SCHRIEVER AFB  NOT AVBL
CHEYENNE MTN   LGT SNOW   8   7  93 S10       29.58R WCI  -6
ELLICOTT         N/A    N/A N/A N/A CALM        N/A
FALCON         FLURRIES   6   4  90 MISG      29.65R
FORT CARSON    FLURRIES  11   7  83 S7        29.70R WCI   1
LIMON          FAIR       1  -2  87 N12       29.76R WCI -16
MONUMENT HILL  LGT SNOW   1  -2  85 NW5       29.65R WCI  -8
CANON CITY     NOT AVBL
WALSENBURG     NOT AVBL
TRINIDAD       CLOUDY    15  11  83 N7        29.73R WCI   5
$$

COZ042>045-048>051-090-091-201000-
...NORTHEAST COLORADO...

CITY           SKY/WX    TMP DP  RH WIND       PRES   REMARKS
GREELEY ARPT   LGT SNOW   1  -2  85 E3        29.88R
AKRON          LGT SNOW   0  -4  83 NW18      29.84R FOG     WCI -21
BURLINGTON     LGT SNOW   6   2  83 N14       29.81F FOG     WCI -11
WRAY           CLOUDY     7   1  78 MISG      29.89F
YUMA           NOT AVBL
STERLING       CLOUDY     3  -2  78 N13       29.89R HAZE    WCI -14
HOLYOKE        MOCLDY     5   0  78 N16       29.91R WCI -14
FORT MORGAN    CLOUDY     2  -5  72 N10       29.88R WCI -14
$$

COZ086-089-092>099-201000-
...SOUTHEAST COLORADO...

CITY           SKY/WX    TMP DP  RH WIND       PRES   REMARKS
PUEBLO         CLOUDY    13   8  81 SE7       29.79R WCI   3
LA JUNTA       CLOUDY    14   8  77 NE8       29.83R WCI   3
LAMAR          FLURRIES  14   3  61 NE15      29.82S WCI  -1
SPRINGFIELD      N/A     13  12  96 N18       29.75R WCI  -4
$$




USA.gov is the U.S. government's official web portal to all federal, state and local government web resources and services.